Theta_e
327 323 317 317 318 318 315 317 320 317 318 322 321 327 338 333 325 333 343 340 333 335 342 343 339 339 340 340 341 341 341 341 340 340 340 340 339 337 335 333 333 333 334 334 334 334 334 333 332 331 329 328 327 326 325 325 324 324 324 323 322 322 321 321 321 320 319 319 318 318 319 319 319 317 316 315 315 315 315 314 313 312 312 311 311 311 311
328 327 326 318 314 317 314 316 323 321 322 330 329 334 341 334 333 346 347 337 331 333 339 342 340 338 339 339 340 342 341 340 340 340 341 340 339 338 335 332 331 330 331 333 333 333 333 333 332 330 328 327 326 324 324 324 324 323 323 322 322 321 321 320 320 320 318 318 318 319 319 319 318 316 315 314 314 313 313 312 311 310 310 310 310 309 309
325 327 333 322 314 318 315 314 321 321 321 327 327 327 330 326 327 337 342 335 328 330 337 342 341 339 340 340 341 341 340 340 340 340 341 340 338 336 332 329 329 329 330 332 332 332 333 332 331 329 327 326 324 323 323 323 323 322 322 322 321 321 320 320 319 319 318 317 318 319 318 317 316 315 314 313 313 312 311 310 309 309 308 308 308 307 307
322 324 331 323 318 319 315 314 318 319 320 322 323 326 327 326 326 329 332 328 328 336 340 340 340 339 340 340 340 340 339 338 339 340 340 339 338 334 329 328 330 330 330 331 331 332 332 331 330 328 326 325 323 323 322 322 321 321 321 321 320 320 320 319 319 318 317 318 318 318 317 316 315 314 313 312 312 310 309 307 307 307 307 307 306 306 305
320 326 332 325 320 316 316 325 327 321 323 325 323 324 328 332 333 329 325 324 333 339 339 340 340 338 339 340 339 339 338 337 338 339 338 337 336 333 329 329 330 330 330 330 330 331 332 331 329 327 325 324 323 322 321 321 321 320 320 320 319 319 319 318 318 318 317 317 317 317 316 314 313 313 312 311 311 309 307 306 306 307 306 305 305 304 303
321 325 331 323 319 320 326 340 340 329 327 327 323 324 326 330 334 334 332 334 338 337 338 341 342 338 339 339 337 337 337 336 337 337 336 336 335 332 329 329 329 329 329 329 330 331 331 330 328 327 324 323 322 321 321 320 320 320 320 319 319 318 318 318 318 317 317 316 317 316 315 313 312 312 311 310 309 308 306 306 306 306 305 304 304 304 303
327 330 332 319 318 328 336 343 342 335 331 329 329 331 330 328 335 344 345 339 337 338 338 337 338 338 338 337 335 336 335 335 336 335 335 334 333 332 330 329 329 328 328 328 330 330 330 329 327 325 323 322 321 320 320 320 319 319 319 319 318 318 318 318 317 317 316 316 316 316 313 312 311 311 310 309 309 308 306 305 305 305 304 304 304 304 304
328 332 333 326 324 331 338 342 342 337 332 327 325 322 320 325 336 345 346 340 335 336 336 335 336 338 338 338 336 335 334 334 334 333 333 333 332 332 330 329 329 328 327 328 329 330 329 327 325 323 322 321 320 319 319 319 319 319 319 319 318 318 317 317 317 316 316 316 316 315 312 312 311 310 309 309 308 307 305 303 304 304 304 304 304 304 304
330 331 331 332 329 327 333 337 336 334 329 326 329 324 318 327 336 337 338 338 336 336 338 338 338 338 340 342 339 335 334 334 332 331 332 332 331 331 330 329 329 328 327 328 329 328 327 325 323 322 320 320 319 319 319 318 318 318 318 318 318 317 317 317 316 316 316 316 315 313 312 312 311 310 309 308 307 306 304 302 303 303 303 303 304 304 304
331 336 333 330 326 326 334 337 337 338 333 331 337 331 319 327 338 335 333 335 337 339 339 338 339 340 343 345 343 340 337 334 332 331 330 329 330 330 329 328 328 328 328 328 328 327 325 324 322 321 320 319 319 318 318 318 318 318 318 317 317 317 317 317 316 316 316 316 314 312 312 312 310 309 308 307 306 305 302 301 301 302 303 303 303 303 304
331 341 337 328 326 328 334 339 341 342 336 333 333 325 320 329 337 334 332 334 337 339 339 338 339 343 347 348 344 340 336 334 333 331 330 329 328 329 329 329 328 328 328 327 326 325 324 322 320 320 319 319 319 318 317 317 317 317 317 317 317 317 317 317 316 316 316 315 313 312 312 311 310 309 308 306 305 304 302 301 300 300 301 302 302 303 303
329 338 331 326 328 327 328 336 342 340 337 332 323 321 330 338 335 331 334 337 337 337 337 337 338 344 352 350 341 337 335 333 331 330 330 329 328 328 329 329 329 328 327 325 324 323 322 320 319 319 318 318 318 317 317 317 317 317 317 317 317 317 317 316 316 316 315 314 313 312 312 311 310 308 307 305 304 303 302 301 300 299 300 301 302 302 302
325 332 327 321 326 330 330 336 338 334 331 326 322 329 339 340 335 334 334 335 335 335 335 337 338 340 343 340 337 335 335 333 331 329 328 328 328 328 328 328 328 327 325 324 323 322 321 320 319 319 318 317 317 317 316 317 316 316 316 317 317 317 317 316 316 316 315 314 313 313 312 310 309 308 307 305 304 302 302 301 299 298 298 299 301 302 302
321 331 334 325 326 332 331 331 333 330 327 328 333 337 336 334 335 334 331 332 335 333 333 339 342 339 335 334 335 335 334 333 333 330 328 328 328 327 326 326 326 325 323 323 322 321 320 318 318 318 318 317 316 316 316 316 316 316 316 316 316 317 316 316 315 315 314 313 313 312 311 310 309 307 306 305 303 302 301 300 299 298 298 298 300 300 301
319 328 331 325 327 330 326 326 333 334 333 337 341 338 332 332 334 333 331 334 336 334 338 341 340 337 334 334 334 333 331 331 331 329 328 327 326 325 324 324 324 324 322 321 320 319 318 317 317 318 318 317 316 315 315 315 315 316 316 316 316 316 316 315 315 314 313 313 312 311 310 309 308 306 305 304 303 302 301 300 299 298 297 298 298 299 300
323 327 323 320 326 327 324 327 334 333 332 336 341 340 335 332 332 333 336 337 336 337 341 337 333 333 334 333 332 331 330 329 329 328 327 325 324 324 323 323 323 322 321 320 318 318 317 316 316 316 317 317 316 315 315 315 315 316 316 316 316 316 315 315 314 313 313 312 311 310 309 308 307 306 304 304 303 302 301 300 298 297 296 296 297 298 299
326 327 324 323 327 325 323 326 329 330 332 333 336 340 338 333 332 334 336 336 334 333 334 333 333 334 333 332 331 330 328 328 328 327 326 324 323 323 323 322 322 321 320 319 318 317 316 316 316 316 316 316 315 314 314 314 315 316 316 316 316 314 314 313 312 312 311 311 310 310 309 308 307 305 304 303 302 302 301 298 296 294 294 294 295 297 298
325 326 326 327 328 326 325 327 325 326 330 332 333 338 337 335 336 335 334 336 335 331 330 332 333 332 331 331 329 328 327 327 326 326 325 323 323 323 322 321 321 321 320 318 317 317 316 316 316 315 315 315 314 314 314 314 315 315 315 315 314 313 312 312 311 311 310 309 309 309 308 308 307 305 304 303 302 301 298 295 293 293 293 293 294 296 297
330 331 329 328 327 327 329 332 331 328 329 330 332 334 334 334 336 336 336 337 336 333 332 333 332 330 330 330 328 327 326 326 325 326 324 323 322 322 321 321 321 320 319 318 317 316 316 316 316 315 315 315 315 315 315 315 315 315 315 314 313 312 311 311 310 310 309 308 308 308 307 307 306 304 303 303 302 299 296 294 294 293 293 293 294 295 296
332 331 329 327 326 327 329 332 332 330 330 331 331 329 329 332 334 335 335 336 336 336 334 333 331 330 328 328 327 326 325 325 325 325 323 322 322 322 321 321 320 319 318 318 317 316 316 316 316 315 315 315 315 315 315 315 315 315 314 312 311 311 310 310 309 308 308 307 307 307 306 305 304 304 303 303 302 299 295 294 294 294 293 293 294 295 295
328 326 326 326 327 328 328 329 329 329 329 331 330 328 328 331 333 334 334 333 336 338 335 331 330 330 328 327 326 325 324 324 324 323 322 321 321 321 321 320 320 319 318 317 317 316 316 316 315 315 315 315 315 315 315 315 314 313 312 311 310 309 309 308 308 307 307 307 307 306 305 304 304 303 303 302 301 299 296 295 294 293 293 293 293 294 295
329 328 327 327 330 330 327 326 327 327 327 329 329 327 327 327 328 332 333 331 330 332 330 329 330 330 327 326 326 325 324 324 322 321 320 321 321 321 320 320 320 319 318 317 317 316 315 315 315 315 315 315 314 314 315 314 313 312 311 310 309 308 308 307 307 307 306 306 306 305 304 304 303 302 302 302 301 299 298 297 296 293 293 293 293 294 295
329 329 328 328 330 329 324 322 324 325 325 327 327 326 325 323 323 327 332 331 329 328 326 325 328 330 328 325 325 325 324 322 321 320 320 320 320 320 320 320 319 318 317 317 316 314 314 315 315 315 315 315 314 314 314 314 312 311 310 309 308 307 307 306 306 306 306 305 305 304 304 304 303 302 302 302 301 300 300 300 299 297 295 293 293 294 295
325 327 329 329 329 326 322 322 324 323 323 325 324 323 323 322 321 324 327 328 328 328 327 324 324 325 325 323 323 324 323 320 320 320 320 320 320 319 319 319 318 317 317 316 314 314 314 314 314 315 314 314 314 314 314 313 311 310 310 309 307 306 306 305 305 306 305 305 304 304 303 303 303 303 302 301 301 301 301 301 301 300 298 296 294 294 294
326 325 326 326 325 323 320 321 322 321 321 321 321 321 322 321 321 322 324 323 323 326 329 328 324 322 322 320 320 322 322 319 319 320 320 320 319 318 318 318 318 317 316 315 314 314 313 313 314 314 313 312 313 313 312 311 310 309 309 308 307 306 305 305 305 305 304 304 304 303 303 303 302 302 302 301 300 300 300 301 302 301 300 298 298 298 297
325 323 322 322 322 322 322 321 319 318 317 317 318 319 319 318 317 318 319 319 317 318 323 326 324 321 320 320 319 320 319 318 319 320 319 318 318 318 318 318 317 317 316 315 314 313 313 313 313 313 312 312 312 312 311 310 310 309 309 308 307 306 306 306 305 304 304 303 303 303 303 302 302 301 301 301 300 300 299 299 300 300 300 300 299 300 300
323 322 323 322 321 321 322 319 316 315 315 315 317 317 315 313 314 315 315 315 315 315 316 319 321 321 320 319 319 319 318 318 318 318 318 318 318 318 318 318 317 316 316 314 313 313 313 313 313 313 312 312 312 311 311 310 310 309 308 306 306 306 306 306 305 304 303 303 302 302 302 302 301 301 300 300 300 300 299 298 298 298 299 299 299 300 301
322 324 325 324 320 318 317 314 313 314 314 313 314 314 313 313 314 315 316 316 315 315 315 316 318 320 319 318 318 316 316 316 316 316 317 318 318 319 319 318 317 316 315 314 313 312 312 312 312 312 312 311 312 312 311 310 309 308 307 306 305 305 305 305 304 303 302 302 302 302 301 301 300 300 300 300 300 299 299 299 298 298 298 298 298 298 298
321 323 322 319 315 314 314 313 313 314 313 312 312 312 313 314 315 315 315 315 314 315 316 315 316 317 318 317 317 315 315 316 316 316 317 318 318 319 319 318 317 317 315 314 313 312 312 312 312 312 312 311 311 311 311 310 309 308 307 305 304 304 303 303 303 303 302 302 301 301 301 300 299 299 299 299 299 299 298 298 298 297 296 295 295 294 293
319 321 318 314 313 314 315 314 314 314 313 313 313 314 314 315 316 315 314 314 315 316 314 311 312 315 316 316 317 316 316 316 316 317 317 318 318 319 318 317 316 315 314 313 312 311 311 311 311 311 312 312 311 311 311 310 309 308 306 305 304 304 304 303 302 302 301 300 300 300 299 299 299 299 299 298 298 298 298 297 297 296 295 293 293 292 291
317 318 315 312 313 314 314 313 313 313 313 314 315 317 317 317 316 315 314 315 317 316 312 310 310 312 312 314 316 317 317 317 317 317 317 317 317 318 318 317 316 314 313 312 312 311 311 311 311 311 311 311 311 311 310 309 308 306 305 304 304 304 304 303 302 302 301 300 299 299 298 299 299 298 298 298 298 298 298 297 296 296 294 293 292 293 293
314 314 313 313 314 313 313 314 313 313 313 314 315 316 315 315 316 316 314 314 314 312 311 312 312 311 312 314 316 317 317 317 316 316 317 316 316 317 317 317 317 316 314 313 312 311 311 311 311 311 311 311 311 311 309 307 306 305 304 303 303 303 303 302 302 301 300 300 299 298 298 298 298 298 298 298 297 297 297 297 296 295 295 294 293 293 293
315 315 315 314 315 314 314 314 313 313 313 313 314 314 313 312 313 313 311 310 309 308 308 310 311 311 313 315 316 315 315 316 315 315 315 315 316 316 316 317 316 315 315 314 313 312 311 311 311 311 311 311 311 310 309 308 307 306 305 304 303 303 302 302 301 301 300 300 299 299 299 299 299 298 298 298 297 297 297 297 296 295 295 294 294 293 292
316 316 315 315 316 316 314 313 313 313 312 311 311 312 311 308 307 307 306 307 308 308 308 309 310 311 312 313 313 312 313 315 315 314 313 313 314 315 315 315 315 315 314 313 312 312 311 311 311 311 311 311 310 310 310 309 308 306 304 304 303 302 302 302 301 301 300 300 299 299 299 299 299 299 299 298 297 297 296 296 296 295 294 294 293 292 291
312 313 313 312 313 314 314 314 314 315 315 313 312 311 309 306 305 306 307 307 308 309 309 310 311 311 311 311 310 310 310 311 311 311 310 311 313 313 313 313 314 314 313 313 312 311 311 311 311 310 310 310 310 309 310 309 308 306 305 304 303 302 302 302 301 301 301 300 299 298 298 299 299 299 298 297 296 296 295 295 295 294 293 292 292 291 291
309 312 313 311 309 308 310 311 310 310 313 314 311 308 306 306 306 307 307 307 308 309 309 309 310 309 308 308 308 307 308 308 308 308 309 310 310 311 311 312 312 312 312 311 311 311 311 311 310 309 309 309 309 308 308 308 307 307 307 305 303 302 301 301 301 301 301 300 299 299 299 299 298 298 297 296 295 294 294 294 293 292 292 291 291 291 291
308 309 311 310 308 306 306 308 307 307 308 309 307 305 305 307 307 308 308 308 308 309 309 309 308 306 305 305 306 306 306 307 307 307 308 308 308 309 309 310 310 310 310 310 310 311 311 310 309 308 309 309 308 307 307 306 306 306 306 304 302 302 301 301 301 301 301 300 300 299 299 298 297 297 296 295 294 293 293 293 292 292 292 292 292 291 291
307 306 307 308 307 307 307 308 309 308 308 308 307 307 307 308 308 308 308 308 308 308 308 307 306 305 304 305 305 305 305 305 306 307 307 307 307 308 307 307 308 308 308 309 310 310 310 309 308 308 308 308 307 306 306 306 306 305 304 303 302 301 301 301 301 301 300 300 299 299 298 297 297 296 295 294 293 293 293 293 294 294 294 294 294 293 292
309 308 307 307 307 307 308 308 309 309 309 308 307 307 307 307 307 307 307 307 307 307 307 306 305 305 304 304 304 303 304 305 305 306 306 306 306 306 305 305 305 306 306 307 309 309 309 309 308 308 308 307 307 306 305 305 304 304 303 302 301 301 301 301 301 300 300 300 299 299 298 298 297 297 296 295 294 294 295 295 295 295 295 296 296 295 293
312 310 307 306 306 306 307 308 308 309 309 309 308 307 307 307 307 307 307 306 307 307 306 306 305 304 304 303 303 303 303 304 304 304 305 305 305 304 304 304 304 304 305 306 308 309 308 308 307 307 307 307 306 306 305 304 304 303 302 302 301 301 301 301 301 300 300 300 300 299 299 298 298 298 297 296 295 296 296 296 296 296 296 296 297 297 296
310 307 306 306 306 307 307 308 308 308 309 309 309 308 308 307 307 307 306 306 306 306 306 306 305 304 304 303 303 303 302 303 303 304 304 304 304 303 302 302 303 303 304 305 306 307 307 307 307 307 307 306 305 305 304 304 303 302 302 301 301 301 301 301 301 301 300 300 300 300 300 299 299 298 297 297 297 297 298 298 297 296 297 297 298 298 298
308 306 306 306 305 307 308 308 308 308 309 309 309 309 308 307 307 307 306 306 306 306 306 305 305 304 304 303 303 302 302 303 303 303 303 303 303 302 302 302 302 303 303 304 305 305 305 306 306 305 305 305 304 304 304 303 302 302 301 301 301 301 301 301 301 301 300 300 300 300 300 299 299 298 298 298 298 299 299 299 298 297 297 298 298 298 298
307 306 305 305 305 307 308 308 308 308 308 308 309 308 308 308 307 307 306 306 306 306 305 305 304 304 303 303 303 302 303 303 303 303 302 302 302 302 302 302 302 302 303 304 304 304 304 304 304 304 304 304 303 303 303 302 302 301 301 301 301 301 301 301 301 300 300 300 300 300 300 300 299 299 299 299 299 299 299 299 299 298 298 298 298 298 298
307 307 306 306 306 307 307 307 307 307 308 308 309 308 308 308 308 307 306 306 306 305 305 304 303 303 303 303 303 303 303 303 303 302 302 301 301 302 302 302 302 302 302 303 304 304 303 303 303 303 303 303 302 302 302 301 301 301 301 301 301 300 300 300 300 300 300 300 300 300 299 299 299 299 299 299 299 299 298 298 299 299 299 299 298 298 298
308 308 307 307 307 307 307 307 307 307 308 309 309 308 308 308 307 307 307 306 305 305 305 304 303 303 302 302 303 303 303 303 303 302 301 301 301 301 301 301 301 302 302 303 303 303 302 302 302 302 302 301 301 301 301 301 301 301 300 300 300 300 299 299 300 299 299 299 299 299 299 299 299 299 299 299 299 299 299 298 298 298 298 298 299 299 299
308 308 308 308 308 307 307 308 308 307 308 308 308 308 308 308 307 307 307 307 306 305 305 304 304 303 303 303 303 303 302 303 303 303 302 301 301 301 301 301 301 301 301 302 302 302 301 301 301 301 301 301 301 300 300 300 300 300 299 299 299 299 298 298 298 299 298 298 298 298 299 299 299 299 299 299 299 299 299 299 299 298 298 298 298 299 299
308 308 308 309 308 308 307 308 308 307 307 308 308 307 308 308 308 307 307 307 306 306 305 305 305 304 304 304 303 303 303 303 303 302 302 302 302 301 301 301 301 301 301 301 301 301 300 300 300 300 300 300 300 299 299 299 299 298 298 298 298 298 297 297 298 298 298 298 298 298 298 298 299 299 300 300 299 299 299 299 299 299 299 298 298 299 299
307 307 308 308 308 308 308 307 307 306 306 307 308 307 307 308 308 308 307 307 307 306 306 305 305 305 304 304 304 304 304 303 303 303 303 302 302 301 301 301 301 301 301 301 301 300 300 300 300 299 299 299 299 298 299 299 298 298 298 298 299 299 298 298 298 298 298 298 298 298 298 298 299 299 299 300 300 300 299 299 299 299 299 299 299 298 299
307 308 308 308 308 308 308 307 306 306 306 307 307 306 306 307 307 307 307 307 307 306 306 305 305 305 305 304 304 304 304 304 304 304 303 303 302 301 301 301 301 301 301 300 300 300 300 300 299 299 298 298 298 298 299 299 299 298 298 298 299 299 299 299 299 299 299 299 299 299 298 299 299 300 300 300 300 300 300 300 299 299 299 299 299 299 299
307 308 308 308 308 308 308 307 307 306 306 307 306 306 306 306 306 306 307 307 306 306 306 305 305 305 305 305 305 304 304 304 304 304 304 303 302 301 301 301 301 300 300 300 300 300 300 299 299 298 298 298 297 298 298 299 299 299 299 299 299 299 299 300 301 301 300 300 300 300 299 299 299 300 300 300 300 300 300 300 300 299 299 299 299 299 299
307 308 308 308 308 308 308 308 307 307 307 307 306 306 306 306 306 306 306 306 306 306 305 305 305 305 305 305 305 304 304 304 304 304 303 303 302 302 301 300 300 300 300 300 300 300 299 299 299 299 298 298 298 297 297 298 299 299 299 299 299 299 300 300 301 300 300 300 301 301 300 300 300 300 300 300 300 300 300 299 299 299 299 299 299 299 298
307 307 307 307 307 307 308 308 307 307 307 307 306 306 306 305 305 305 305 306 306 306 305 305 305 305 305 305 305 304 304 304 303 303 303 303 302 301 301 300 300 300 300 300 299 299 299 299 299 299 298 298 298 298 298 298 299 299 299 299 299 300 300 300 300 299 299 299 300 300 300 300 300 300 299 299 299 299 299 299 299 299 299 299 299 299 299
Wind_Speed
2 1 2 5 7 5 7 7 4 5 6 9 7 5 6 6 6 6 7 5 7 6 6 10 13 13 13 13 12 11 10 11 10 11 13 14 14 15 15 14 11 9 8 11 15 19 23 26 26 26 27 28 28 28 29 30 31 31 31 30 29 29 27 26 26 24 23 23 22 23 22 18 16 20 23 22 21 20 18 17 18 18 18 19 21 22 22
5 5 2 5 8 6 5 6 6 5 6 8 8 5 6 7 5 6 7 6 3 3 7 9 9 10 11 10 9 10 11 12 12 14 15 14 14 14 12 9 8 8 7 11 15 18 22 26 26 26 27 29 29 29 30 31 31 31 31 30 29 28 26 25 25 24 23 23 23 23 20 16 19 23 24 23 22 20 18 18 19 20 21 22 22 23 22
4 6 4 3 8 8 6 5 5 4 6 5 4 4 5 4 1 3 7 8 2 1 3 4 3 5 9 10 11 12 12 13 14 14 14 13 13 12 11 11 11 11 12 13 13 16 21 26 27 27 27 29 30 30 31 32 32 32 31 30 28 27 26 25 25 24 23 23 24 21 17 18 23 26 25 23 22 20 19 20 22 23 23 23 23 23 22
2 4 3 2 6 6 4 6 8 3 6 3 3 3 5 5 4 2 6 7 3 3 4 6 5 6 10 12 12 12 10 12 15 15 14 13 13 13 14 14 15 16 16 15 14 17 23 27 28 27 28 29 29 30 31 31 31 30 29 29 27 26 26 25 25 25 23 23 23 18 15 20 26 27 26 24 22 21 21 22 24 24 23 24 23 22 21
2 5 3 2 6 6 2 7 7 5 4 3 2 2 3 6 7 6 5 5 6 6 8 9 6 6 10 11 12 12 11 12 14 15 15 14 13 14 15 16 17 17 16 18 20 22 25 29 30 30 31 31 30 31 31 31 31 30 28 27 26 26 26 25 24 24 24 24 22 16 16 23 28 27 26 24 22 22 22 23 24 24 24 24 24 22 22
2 6 4 4 6 3 6 6 5 5 4 6 6 4 6 6 6 5 4 4 7 10 10 12 12 11 12 13 12 12 13 12 12 13 14 14 14 15 15 15 15 14 14 19 23 25 26 29 31 31 32 32 32 32 32 31 30 29 28 27 26 26 26 25 25 25 25 25 20 16 20 27 28 26 26 25 23 22 22 23 25 25 25 25 24 23 22
2 3 5 5 5 6 6 5 4 5 6 8 8 4 4 4 6 8 7 6 11 13 10 11 14 13 10 9 9 10 12 13 13 13 12 12 14 14 15 15 14 13 15 19 22 23 24 26 28 29 29 31 32 32 33 32 31 29 28 27 27 26 26 26 26 26 27 25 20 18 24 29 28 27 27 25 24 22 22 24 25 25 26 25 25 24 23
2 3 4 4 6 5 6 7 5 2 1 5 6 2 4 4 2 7 10 9 9 10 8 7 8 7 6 6 4 6 9 10 12 13 12 13 14 13 14 15 15 16 21 24 25 25 24 26 28 27 28 30 32 31 32 32 30 29 28 27 27 27 26 26 26 27 28 25 20 22 28 30 28 28 27 25 24 23 22 24 25 25 25 25 25 25 23
3 4 2 1 1 2 4 4 3 1 1 2 6 4 2 5 4 0 8 11 7 6 6 6 7 7 8 5 1 3 6 8 9 11 12 13 14 13 16 19 20 22 25 27 27 27 27 27 28 28 30 32 32 31 30 30 30 29 28 27 26 26 25 25 26 27 27 24 22 26 30 30 28 28 27 25 25 23 23 24 25 25 24 24 24 24 23
2 4 2 2 2 1 4 5 5 4 3 4 6 6 1 4 5 5 4 11 10 7 7 8 8 8 7 4 4 5 6 8 7 7 8 10 13 15 18 20 20 22 25 27 29 30 29 28 28 31 33 33 32 29 28 28 29 28 27 25 24 23 23 26 27 27 24 23 24 29 31 29 29 28 27 26 25 23 24 25 25 25 24 24 23 22 21
2 5 3 1 2 3 5 6 8 7 4 3 6 5 2 5 4 5 1 8 10 10 11 10 9 8 5 5 6 6 7 8 9 9 9 9 12 17 22 24 24 24 27 28 28 29 29 28 29 32 33 33 33 30 29 30 30 28 28 27 26 26 26 28 28 26 23 23 27 30 30 29 29 28 28 27 25 24 24 24 24 24 24 24 22 21 20
2 4 2 1 2 2 4 5 7 9 3 5 7 3 6 6 4 3 4 9 9 11 13 11 9 8 6 7 6 6 8 7 8 11 12 13 14 17 21 26 27 28 28 27 26 26 26 27 30 32 33 33 32 31 31 32 31 29 30 30 28 28 27 27 27 24 24 26 29 31 30 30 29 29 28 27 26 25 24 24 24 24 23 24 23 20 19
2 4 2 1 2 3 4 5 6 6 3 6 5 6 8 5 5 4 6 10 8 9 12 10 7 6 5 5 6 8 9 9 8 9 13 19 21 22 24 26 26 25 25 26 26 26 27 29 32 34 34 32 29 29 30 28 26 28 30 29 28 27 27 26 25 24 25 29 30 30 30 30 29 29 28 27 27 26 25 24 23 23 23 23 23 21 19
1 3 3 0 2 2 3 5 5 3 3 2 4 6 5 4 5 3 6 9 7 7 9 7 5 4 4 7 10 9 9 10 9 8 11 15 18 20 23 26 28 26 23 23 24 24 25 29 32 35 34 30 27 27 26 24 25 27 29 29 28 27 27 26 25 25 28 31 31 31 31 30 30 29 28 28 27 26 26 24 23 23 23 23 23 22 20
2 3 3 1 2 3 6 7 5 4 3 5 6 1 1 3 3 0 5 6 6 7 6 4 5 7 8 10 10 8 8 10 10 10 12 14 14 17 21 23 27 28 24 22 22 22 23 26 29 32 33 29 26 25 23 24 26 28 27 28 27 27 26 26 27 29 32 33 33 32 32 31 31 30 29 29 28 26 26 25 23 23 23 23 24 23 21
2 3 1 1 4 5 7 4 0 1 1 4 5 3 1 1 1 1 4 4 4 7 8 7 8 8 9 10 10 8 8 9 9 10 11 14 16 19 21 22 25 27 26 23 23 23 24 25 25 26 28 27 26 25 23 24 26 27 27 27 26 26 27 28 30 32 34 34 34 33 33 32 32 31 31 29 28 27 25 25 25 25 24 25 25 25 23
2 4 3 3 4 6 4 5 3 5 5 3 1 3 3 1 1 1 3 4 4 5 9 10 9 8 9 9 9 9 8 9 9 10 11 15 18 20 21 23 25 25 24 25 25 23 23 24 24 23 23 24 22 19 19 22 25 26 26 26 26 28 30 32 33 34 34 34 35 34 34 33 32 32 31 30 29 28 26 26 27 27 26 26 27 27 25
2 3 0 1 2 4 4 7 7 7 6 5 4 4 3 2 2 2 4 6 5 5 7 9 8 8 9 9 9 8 9 8 8 9 10 14 18 21 20 21 23 23 22 23 23 22 22 23 24 23 22 21 19 16 18 22 24 24 25 26 28 30 32 33 34 34 34 34 34 35 34 33 32 32 32 31 30 29 27 27 27 28 27 27 27 28 27
2 2 3 3 3 4 4 8 7 7 7 6 5 5 4 3 3 4 4 5 6 6 7 9 8 8 9 10 9 8 9 8 8 9 9 12 16 20 21 22 23 23 22 21 21 22 22 23 24 23 22 21 21 22 24 25 26 26 27 29 30 31 32 33 33 34 34 34 34 35 34 32 32 32 31 31 30 29 28 28 27 26 26 27 28 29 28
2 2 4 4 2 3 2 4 4 2 5 6 7 5 5 5 6 5 4 4 5 5 6 8 10 9 8 10 10 9 8 8 8 8 9 13 16 18 21 24 25 24 23 23 22 22 22 22 23 24 24 25 27 28 28 29 30 31 30 31 32 32 32 32 32 32 34 35 35 34 33 32 32 32 32 32 30 29 29 29 28 27 28 28 30 31 31
3 1 2 2 1 4 4 4 4 2 3 5 7 7 8 8 8 7 7 6 5 5 6 7 9 9 7 8 10 10 8 8 8 9 11 15 18 19 20 22 24 23 23 23 24 23 22 22 24 25 26 28 29 29 28 29 30 30 30 31 31 31 31 32 31 31 33 34 35 34 32 31 32 32 32 31 28 27 28 28 27 29 30 30 32 33 34
2 2 4 4 4 3 3 3 5 4 4 6 8 8 9 9 8 7 7 7 6 6 7 7 9 9 6 6 9 10 9 9 10 12 14 16 18 20 22 21 21 22 22 23 23 22 21 23 25 25 27 28 28 27 28 29 30 31 32 31 31 30 31 31 31 32 33 34 34 33 32 32 31 29 29 29 27 27 27 27 25 25 26 27 30 32 32
4 5 5 4 4 3 1 2 5 5 4 7 8 7 7 7 7 6 7 7 7 6 5 6 10 11 8 7 9 8 7 9 13 16 18 18 18 21 24 23 21 20 21 22 22 22 23 25 26 27 27 27 27 27 28 30 32 34 34 32 30 30 30 31 32 34 35 34 33 32 32 32 31 29 27 26 27 28 28 27 25 23 23 24 26 28 27
2 2 4 4 5 4 3 3 6 5 4 6 7 6 7 7 7 7 8 7 5 5 5 4 8 12 10 9 9 9 8 10 15 17 18 19 21 23 25 25 24 23 22 21 22 24 26 27 28 30 29 28 28 29 30 32 34 35 35 33 31 29 29 31 33 35 35 34 33 32 32 31 31 30 27 25 23 24 26 28 27 25 24 24 24 24 22
4 2 2 4 5 5 4 5 6 6 6 6 6 6 7 7 7 8 8 7 6 4 5 4 6 12 14 11 11 12 11 12 17 19 17 16 19 21 21 23 25 26 27 28 28 28 29 29 30 31 30 28 29 31 32 33 34 33 34 34 33 32 32 33 34 34 34 34 33 33 32 31 30 30 29 26 22 20 21 25 28 29 28 26 24 23 21
5 5 6 7 6 4 4 5 6 7 7 7 7 6 6 7 9 9 9 8 8 7 5 4 6 11 14 14 14 14 13 14 17 19 18 17 17 18 19 21 24 26 27 28 28 29 31 32 32 32 29 28 29 32 33 34 35 35 34 34 35 36 36 35 35 33 33 33 33 33 32 31 30 29 28 27 25 23 22 22 25 28 29 29 27 25 23
4 5 7 8 6 5 6 5 5 6 7 8 8 7 8 11 12 12 12 12 13 13 12 7 7 9 11 13 15 14 14 16 16 16 16 17 19 20 20 21 23 24 24 24 25 27 29 31 31 31 30 29 30 31 32 34 35 35 33 31 33 36 37 37 36 34 33 33 33 32 31 31 30 30 28 27 27 26 26 26 26 26 27 29 28 26 24
4 4 6 6 6 4 5 5 6 7 8 9 9 8 10 13 13 12 11 11 10 12 14 12 9 9 8 10 12 12 12 13 13 13 15 17 19 21 22 21 21 22 22 22 23 25 28 28 28 28 28 28 29 29 31 33 34 33 31 30 32 34 35 35 35 34 33 33 32 32 32 32 31 30 29 28 28 27 27 28 28 27 26 26 26 25 23
4 4 6 6 7 7 7 7 8 9 8 9 10 10 10 11 11 9 8 8 7 7 10 11 11 10 8 8 10 10 10 10 11 14 17 18 19 20 21 22 23 24 24 23 23 25 26 26 26 25 26 28 29 29 30 31 32 32 32 32 32 33 33 33 33 33 33 32 32 32 32 32 30 30 29 28 28 27 27 28 28 28 28 27 26 24 23
3 5 7 7 7 9 9 8 8 8 7 7 9 9 8 9 9 7 6 7 6 6 7 8 9 10 9 8 7 8 9 10 13 15 16 18 20 21 21 21 19 19 20 22 24 26 26 26 25 27 28 29 29 29 29 31 32 32 32 32 32 33 33 33 33 32 32 32 31 31 31 31 31 30 30 29 28 28 28 28 28 29 28 28 27 26 25
7 9 9 7 7 10 9 6 6 7 6 7 8 8 7 8 8 6 5 5 5 6 7 8 8 8 9 8 6 6 7 8 10 10 11 14 17 20 22 23 20 17 18 20 23 26 28 27 27 28 30 30 30 29 29 29 30 30 29 29 30 32 33 33 33 32 32 32 31 31 32 32 31 31 30 30 29 28 28 28 28 29 29 28 28 27 26
10 10 10 8 7 8 7 6 6 6 6 7 8 7 6 6 6 5 5 4 4 5 6 6 7 7 7 7 5 5 5 5 6 7 8 10 12 15 20 24 25 24 24 25 25 27 28 28 28 29 30 31 30 30 29 28 27 27 27 26 28 29 31 32 32 32 32 32 32 32 32 32 32 31 31 31 30 29 29 29 28 29 29 29 28 27 26
9 8 7 6 6 7 6 5 6 6 6 6 6 5 4 5 5 4 4 4 5 5 6 5 6 6 6 6 5 5 5 5 5 5 6 8 9 11 15 18 19 21 23 25 28 29 29 29 29 30 31 31 31 31 31 30 29 29 28 27 27 28 29 31 32 31 31 32 32 33 33 32 32 32 31 31 30 30 29 29 29 29 29 29 28 27 27
7 6 6 6 6 6 6 5 5 5 5 5 5 4 5 5 5 5 6 6 6 5 4 5 6 6 5 5 4 4 4 3 3 3 4 5 7 8 10 12 13 15 18 21 24 27 28 29 29 30 31 32 32 32 32 32 30 30 29 28 28 28 28 30 30 30 31 32 32 32 32 31 31 31 31 30 30 29 29 29 29 29 29 28 27 26 27
8 7 5 5 6 6 7 6 6 6 6 5 4 4 5 6 7 7 8 7 5 3 4 5 6 5 5 5 5 3 2 1 1 2 3 4 5 7 8 8 9 11 13 16 20 24 26 27 29 31 32 32 32 33 33 33 32 30 28 26 27 27 28 30 30 30 31 32 30 30 30 31 30 30 30 29 29 29 29 29 28 28 28 28 27 27 26
10 8 6 5 7 8 8 7 6 6 6 5 5 4 5 7 8 8 7 7 6 5 5 6 5 6 6 6 5 4 3 1 0 1 2 3 4 5 6 7 9 11 12 13 17 22 25 27 29 31 32 33 33 33 33 33 33 32 29 27 26 26 26 27 27 28 29 30 29 29 30 30 29 29 28 28 28 28 28 27 27 27 27 26 26 26 26
11 10 6 5 8 9 9 9 10 9 7 6 6 5 6 7 8 8 8 8 8 6 6 5 6 7 7 6 5 4 2 1 1 2 2 2 2 3 5 6 8 10 11 11 15 21 24 27 30 31 32 33 33 33 33 33 33 33 31 29 29 28 27 25 25 26 27 29 29 29 29 29 29 28 28 28 28 28 27 27 26 25 24 23 24 25 26
10 11 10 9 11 11 10 10 13 13 10 7 6 6 7 9 9 8 8 8 7 6 6 6 7 7 6 5 5 4 3 1 1 1 1 1 2 3 3 4 5 7 9 10 14 20 25 28 30 31 31 32 32 32 32 32 32 31 30 29 30 30 29 28 27 27 28 28 28 29 29 30 30 29 28 28 28 28 27 26 25 24 23 22 21 23 25
8 9 11 11 12 13 12 11 12 14 12 9 7 7 8 9 9 8 8 8 7 6 6 6 6 5 5 4 4 4 3 2 1 1 1 2 3 3 2 1 3 5 7 8 12 18 23 27 30 30 30 30 30 30 30 29 29 29 29 29 29 29 27 25 26 27 28 28 28 29 30 30 30 28 28 28 28 28 28 28 26 25 23 21 20 21 23
6 6 8 9 10 11 11 10 10 11 13 12 10 9 9 9 8 8 8 7 5 4 4 4 4 4 4 3 3 2 2 2 1 1 2 2 3 4 3 0 2 4 6 8 12 17 21 25 28 28 28 27 27 27 26 25 25 26 27 27 28 28 25 23 23 24 25 25 26 28 29 30 28 27 26 27 27 27 28 28 28 27 25 23 21 21 22
6 8 10 9 9 10 11 11 10 11 12 12 12 11 11 10 8 7 7 6 5 5 4 4 4 4 4 3 2 1 1 1 1 2 3 4 5 5 3 1 1 3 5 8 12 16 20 23 25 25 25 26 25 24 24 24 24 26 26 27 27 27 25 24 22 22 23 25 26 26 25 24 24 24 25 25 26 25 25 26 28 28 27 25 23 22 22
7 9 10 9 8 10 11 10 10 10 10 12 12 12 11 10 8 7 7 7 6 6 6 5 4 4 4 3 2 2 2 2 2 2 3 4 5 5 4 3 4 5 7 10 14 18 20 22 22 23 25 26 24 23 23 25 25 25 24 24 23 23 23 22 21 21 21 22 22 20 17 15 17 21 23 23 22 21 21 23 26 27 26 25 24 22 21
8 9 8 8 9 11 11 11 11 10 11 12 13 12 12 11 9 8 8 8 7 7 7 7 6 5 4 3 3 3 2 2 2 3 2 2 3 5 5 5 7 9 11 14 17 18 19 21 22 22 23 24 24 23 25 25 23 22 21 19 18 18 19 19 19 17 15 15 16 16 14 12 14 18 20 21 20 19 18 20 23 25 25 25 24 22 21
10 11 10 10 11 12 12 11 11 10 11 12 13 12 12 11 11 11 10 10 9 9 8 7 6 6 5 4 4 3 3 3 3 3 3 2 1 2 5 8 11 13 15 17 18 19 20 21 22 22 22 23 24 24 24 22 21 20 19 17 15 14 14 15 15 13 11 12 14 14 13 13 15 16 18 20 21 21 19 18 18 20 21 23 24 23 22
9 11 11 10 11 12 13 12 10 10 11 13 14 13 12 12 12 13 12 11 10 10 9 8 8 7 6 5 4 4 4 5 5 5 4 3 1 2 7 11 14 15 16 17 18 18 19 20 21 21 21 22 22 21 20 19 19 19 18 17 15 11 8 9 12 13 11 11 13 13 12 14 16 18 19 21 21 22 22 21 19 18 18 20 22 24 24
8 11 11 9 9 12 14 14 12 11 11 12 12 12 13 13 13 14 13 12 11 11 9 8 7 6 6 7 6 5 5 5 5 5 5 3 3 5 10 14 15 16 17 18 18 20 21 21 21 20 19 19 18 18 18 17 17 17 15 14 13 10 6 5 8 11 10 10 11 12 13 15 18 20 23 23 21 21 21 21 21 21 20 19 20 22 23
6 8 9 8 8 11 14 15 13 11 9 8 7 8 11 14 14 14 13 12 11 11 10 9 7 6 6 6 7 7 8 7 6 5 5 4 4 7 13 16 17 17 17 18 19 21 22 20 19 18 19 19 18 17 16 15 15 15 14 11 10 9 8 6 6 8 10 11 13 14 16 18 21 24 26 25 23 22 22 21 21 21 21 20 20 20 21
5 5 7 8 8 9 11 12 11 9 8 7 6 6 10 14 16 14 13 11 11 11 11 10 8 6 7 6 5 6 7 7 6 5 6 5 4 11 17 18 17 17 18 18 20 21 20 18 17 17 18 18 18 17 16 14 14 16 16 12 7 6 6 7 8 10 13 15 18 20 22 24 26 28 29 27 25 24 23 23 23 23 21 21 21 21 21
6 6 8 9 8 7 8 8 8 8 9 9 6 5 8 13 14 13 12 12 12 12 13 12 10 8 8 7 5 5 6 5 3 4 5 5 6 13 19 19 17 18 19 20 20 19 18 17 16 15 14 15 17 16 14 13 13 15 15 11 7 5 6 6 7 10 15 20 24 27 28 26 26 28 30 29 27 25 23 23 23 23 22 22 22 22 22
7 7 8 8 6 5 5 5 5 7 10 9 7 6 7 11 14 14 13 14 14 14 14 13 11 9 8 7 6 6 7 5 3 3 5 6 8 15 20 20 18 19 20 21 20 18 16 15 14 13 12 13 14 13 14 14 14 13 13 12 9 6 5 9 12 13 16 23 29 31 28 23 19 19 21 23 24 25 24 22 21 21 22 23 23 23 22
9 9 8 6 4 4 4 3 4 7 9 9 8 6 6 9 13 16 16 16 16 15 14 13 11 9 9 8 7 7 7 5 4 4 6 6 8 14 20 20 18 17 18 18 18 17 16 15 13 12 12 12 12 12 15 18 17 14 13 12 9 6 9 13 15 13 13 20 25 24 20 15 11 10 11 12 13 14 14 13 13 13 14 15 16 17 16
10 9 7 5 3 4 4 4 5 7 9 9 7 6 5 7 11 15 16 17 17 17 15 13 11 10 10 9 8 7 6 5 3 4 6 7 8 13 18 19 18 17 16 16 16 17 17 16 15 13 12 12 11 10 13 17 18 15 12 10 7 6 5 7 12 12 10 14 15 12 9 7 5 4 3 2 2 2 3 2 2 2 2 3 4 5 5
Wind_Direction
80 6 184 147 114 123 161 161 188 219 179 138 134 180 195 153 146 210 233 184 150 176 187 161 157 162 162 164 164 159 158 156 150 150 157 163 166 167 172 173 158 137 137 149 156 160 160 159 160 159 157 158 159 159 160 161 163 165 167 167 166 166 166 165 165 165 163 160 159 161 162 162 157 152 151 151 150 150 151 148 145 143 142 141 139 136 134
39 359 326 151 129 127 155 167 185 187 163 156 160 177 175 161 178 194 173 157 148 172 180 173 164 160 155 150 146 146 151 154 155 160 163 167 169 165 162 147 114 108 141 165 163 161 161 162 162 160 159 159 160 160 161 163 166 168 168 167 166 165 165 164 163 162 159 161 166 168 166 163 156 152 152 151 149 148 147 146 144 143 140 139 137 135 134
9 351 349 163 148 148 170 209 230 171 126 143 171 158 137 129 213 203 140 126 98 270 170 133 92 121 133 138 148 154 159 161 162 165 166 167 165 149 125 110 117 142 168 174 168 163 165 165 164 164 162 160 160 161 163 165 167 168 168 167 165 163 162 161 160 159 158 164 171 170 165 160 156 153 152 150 148 146 144 143 143 142 140 137 135 135 134
335 336 347 175 135 123 159 224 246 204 125 142 208 191 162 152 163 140 109 121 174 214 133 101 94 133 141 146 153 156 161 166 165 167 168 167 159 141 130 136 154 170 175 174 174 173 169 167 167 166 163 161 161 163 164 165 166 166 166 164 162 160 159 159 159 159 161 169 174 170 161 158 155 153 152 149 147 145 143 144 144 142 140 137 134 134 134
279 314 329 128 99 87 220 235 226 197 147 152 186 231 202 165 148 146 158 185 192 164 134 121 124 149 153 156 161 160 165 171 171 170 168 165 158 150 150 160 171 177 176 175 178 178 173 169 168 168 165 163 164 165 164 164 163 163 163 161 159 158 157 159 159 159 165 174 177 172 161 157 154 153 152 149 147 146 145 146 146 143 140 137 134 134 133
237 311 357 87 107 152 236 237 197 177 169 156 161 206 211 176 149 145 169 184 156 147 151 151 156 172 176 172 172 168 165 167 172 174 170 165 162 159 161 170 176 178 176 177 179 179 177 173 169 168 166 164 164 164 162 162 162 161 159 158 158 157 157 160 159 161 169 175 176 171 162 156 153 153 152 149 148 148 148 149 148 144 141 139 135 134 132
169 338 46 109 172 221 247 273 254 215 191 160 161 203 231 172 138 122 120 152 161 157 162 165 166 174 174 161 164 172 171 167 166 169 171 168 166 165 166 173 178 177 176 178 179 179 177 171 166 165 164 162 160 160 160 160 160 159 158 157 158 159 160 162 161 165 173 179 177 170 161 156 154 153 152 150 150 150 152 153 151 147 144 142 138 135 133
129 45 73 152 211 257 295 314 308 284 107 121 132 104 350 357 94 135 147 170 177 158 151 156 156 148 128 112 125 166 176 171 164 166 171 173 171 169 168 173 179 179 178 178 177 176 172 167 164 162 161 159 157 156 158 159 158 158 158 157 159 163 165 167 168 173 179 183 179 167 160 156 155 153 153 152 152 153 153 153 152 149 147 146 143 139 136
124 111 109 230 282 324 325 324 312 310 42 142 144 133 331 327 340 10 165 167 168 155 138 126 118 108 98 93 95 190 181 176 171 170 171 172 170 167 168 174 178 179 178 177 175 172 168 165 163 160 159 160 157 155 157 158 158 159 160 159 161 166 167 170 174 179 183 184 176 164 160 158 156 155 155 154 155 156 155 154 154 152 150 148 147 144 141
90 101 78 18 61 207 258 267 275 272 233 192 144 119 280 296 341 339 195 167 158 143 123 118 120 109 103 140 217 226 193 167 154 151 156 164 164 161 164 169 172 174 175 174 172 170 167 164 162 161 162 159 154 154 157 158 159 160 159 158 162 168 171 175 179 183 187 185 172 163 161 160 158 157 157 157 158 160 159 156 155 154 152 149 147 146 144
60 99 102 114 151 214 244 252 277 284 248 173 118 106 259 279 335 349 192 162 153 143 137 139 136 121 129 200 225 219 188 164 145 142 145 156 162 162 165 167 170 173 175 173 171 170 166 162 161 163 161 156 155 160 163 162 162 161 159 163 170 175 180 183 184 186 189 182 171 165 164 163 161 160 159 158 160 163 162 159 156 156 155 152 149 147 145
73 99 95 215 191 243 260 249 273 284 279 93 99 163 244 266 311 321 169 162 162 153 146 147 148 147 172 209 213 188 170 155 144 148 153 159 162 164 167 172 174 173 172 169 167 168 166 161 161 162 160 158 162 167 167 166 166 163 164 172 177 178 182 186 186 188 188 179 171 168 166 165 163 162 161 160 161 162 162 160 158 157 158 156 152 148 146
82 103 103 293 260 265 261 252 271 292 348 75 112 207 235 259 293 276 180 166 169 159 152 157 171 186 194 178 157 154 154 146 141 149 156 160 164 165 168 171 170 168 168 168 168 170 169 164 163 164 163 163 167 169 168 168 166 164 168 175 177 177 182 187 188 189 186 178 173 171 169 166 164 163 163 164 164 162 161 160 158 156 157 157 154 149 146
97 112 115 3 283 267 275 281 299 347 62 147 210 226 234 259 288 277 161 156 158 155 159 163 159 159 151 133 132 142 151 147 141 141 146 152 159 162 162 164 163 161 164 167 167 169 170 166 166 167 167 168 169 169 170 168 166 168 172 175 177 180 184 188 188 186 181 178 175 172 170 168 165 163 165 166 165 164 163 161 158 156 156 156 153 149 146
118 79 75 100 203 282 324 324 330 27 104 196 215 234 336 289 292 76 125 137 150 150 141 112 106 119 124 126 130 137 143 141 139 144 147 145 148 152 154 160 163 160 159 163 165 165 167 169 170 171 171 169 169 171 172 170 170 173 174 174 178 183 186 186 185 182 178 176 174 171 170 169 166 164 165 166 166 167 166 163 159 157 157 156 153 149 146
104 106 124 206 209 268 318 353 69 307 288 204 185 145 85 350 323 105 102 105 148 150 130 112 113 122 126 130 134 135 139 141 140 143 145 143 145 151 155 160 163 161 159 161 163 165 167 170 172 173 172 171 172 175 174 171 172 173 173 176 181 184 184 182 180 178 176 173 172 170 169 169 167 166 166 167 168 170 169 166 162 159 157 156 154 149 147
108 143 190 235 242 272 325 42 36 330 343 9 109 130 115 59 358 83 97 89 96 122 125 124 125 128 134 138 139 141 144 146 143 142 146 147 149 153 156 159 163 164 162 161 161 162 166 168 170 174 177 177 174 170 166 169 172 173 174 179 182 180 178 176 175 173 171 169 170 170 170 171 170 168 168 169 169 169 170 167 162 158 156 156 154 150 149
99 96 89 277 313 329 13 47 25 345 350 9 26 56 59 12 353 53 91 98 93 101 119 125 127 139 145 140 139 142 141 139 140 140 143 148 150 151 153 157 160 159 156 155 155 155 162 169 173 179 184 180 168 160 166 174 177 178 180 181 178 174 172 171 171 170 167 167 169 170 171 174 174 172 172 171 170 170 170 167 162 158 156 155 153 150 150
106 64 308 308 12 13 33 55 34 345 337 360 23 38 22 357 21 48 65 87 93 100 117 124 129 142 145 138 137 142 139 138 145 146 144 148 154 155 156 157 157 153 151 153 156 159 165 174 178 179 180 176 170 172 179 181 180 184 187 181 173 170 170 169 168 168 166 166 167 169 172 175 175 174 175 175 172 171 170 167 162 159 158 156 153 150 149
98 187 247 275 331 336 354 72 75 313 320 0 20 22 18 21 27 27 30 57 81 95 115 130 137 145 149 145 142 142 141 143 149 152 151 152 156 159 161 160 160 159 159 161 162 164 168 172 175 174 173 175 178 181 183 184 183 184 183 176 169 169 169 167 166 167 166 165 167 169 172 175 174 174 176 177 177 177 175 171 167 164 162 159 156 153 151
71 127 217 243 350 358 2 48 71 347 337 16 23 18 23 29 22 19 27 41 69 105 123 130 133 138 148 149 142 140 143 146 150 155 157 156 156 158 162 165 166 166 166 165 164 166 168 170 171 171 173 178 184 185 184 184 181 176 172 169 167 166 166 166 166 166 165 166 169 170 171 172 174 175 178 181 182 182 180 179 175 172 169 164 160 157 155
128 202 204 180 137 86 28 34 42 23 27 50 41 24 22 22 12 12 30 37 51 92 120 130 128 130 138 145 142 142 148 152 154 156 157 156 157 158 161 165 167 166 167 168 166 165 167 167 167 169 174 181 186 187 184 181 176 171 168 166 165 164 165 166 166 165 165 167 171 172 171 171 172 173 177 182 184 183 182 183 181 178 176 171 167 164 162
201 213 201 171 131 124 157 59 53 45 53 64 55 32 19 17 10 19 42 49 53 73 100 125 132 134 140 144 141 139 144 152 155 158 159 160 161 162 163 165 167 168 169 168 165 163 166 167 167 169 175 180 185 186 183 179 175 171 168 164 163 164 166 166 166 167 168 170 171 171 171 172 173 173 175 179 184 187 187 186 185 184 182 179 176 174 170
175 181 175 153 122 118 134 92 66 50 52 68 62 34 18 21 25 35 47 50 59 88 106 120 133 136 136 138 141 139 140 151 157 161 165 166 165 166 168 168 168 168 167 167 166 165 166 167 168 170 174 178 182 183 180 178 176 172 168 166 165 166 168 168 168 169 170 171 171 170 171 173 175 176 177 178 183 191 195 196 194 191 187 183 182 182 180
108 109 135 119 109 110 106 86 63 41 37 56 58 31 19 30 41 47 51 42 35 75 111 117 131 138 138 140 146 147 149 158 162 161 161 163 166 169 172 172 171 170 171 174 173 170 168 169 171 172 171 172 176 178 177 175 173 170 169 169 168 168 169 169 170 172 173 172 172 173 173 175 177 179 179 179 178 181 187 193 195 196 194 191 187 187 189
97 107 91 76 73 72 72 66 46 27 28 48 55 34 20 39 49 47 50 45 34 44 78 113 144 148 146 148 152 151 149 155 159 158 155 157 165 172 175 177 176 176 177 177 175 172 172 173 172 171 171 171 173 176 176 174 172 172 174 174 172 173 173 172 173 175 176 175 175 175 176 177 178 179 181 181 178 172 168 171 179 187 193 194 193 193 194
54 92 93 84 64 44 52 69 63 42 39 50 53 40 36 49 53 45 39 39 38 38 45 74 132 142 137 139 142 143 144 148 153 157 159 162 169 177 179 179 179 179 178 176 173 173 174 174 174 174 175 175 176 177 176 175 174 174 176 176 174 175 176 176 177 178 178 178 178 177 177 179 180 179 179 178 176 172 168 165 166 171 180 186 189 192 192
41 63 88 104 109 93 79 83 77 62 52 51 51 49 51 52 50 44 34 26 26 33 38 52 89 109 115 127 130 132 142 149 152 158 167 171 174 178 178 176 175 175 173 171 172 175 175 176 177 178 178 178 178 179 178 176 174 174 176 177 176 175 176 177 179 180 180 180 180 180 180 180 180 179 178 176 174 172 169 167 166 165 168 174 179 183 185
51 66 80 96 115 113 93 73 64 56 50 52 52 50 53 54 50 46 35 21 19 29 31 38 60 80 96 120 133 138 146 155 164 171 173 173 173 175 177 177 177 176 176 175 177 178 177 177 178 179 181 181 181 181 181 180 178 178 180 180 178 176 176 178 181 181 181 182 183 183 183 182 181 179 178 176 175 173 170 168 168 167 167 169 172 174 176
32 67 87 93 99 95 83 75 73 63 52 58 59 51 52 59 56 44 30 26 31 34 26 30 47 61 70 88 121 148 158 167 177 179 174 171 172 175 178 176 171 172 178 181 180 179 179 179 180 182 184 184 184 185 186 186 184 183 183 182 180 179 179 180 181 182 181 182 183 184 184 184 183 182 179 177 178 177 175 173 173 172 172 173 175 176 177
56 67 83 86 85 87 86 84 85 75 59 63 66 56 50 57 57 45 31 31 37 37 32 37 44 44 48 65 105 144 156 164 173 175 172 174 176 178 180 179 176 177 183 185 184 182 181 183 184 185 186 186 187 188 188 185 183 182 181 180 181 183 184 184 183 182 183 183 185 185 185 185 185 185 183 182 182 182 181 180 179 179 179 180 182 185 184
74 73 76 71 69 79 85 83 82 76 65 67 71 65 56 61 64 54 42 45 54 52 46 44 45 45 51 65 91 120 132 141 154 162 170 178 182 184 185 187 189 189 189 189 189 188 186 185 187 187 186 186 187 187 184 180 179 179 179 180 180 183 185 185 184 184 185 186 187 187 187 187 187 187 188 189 189 188 187 187 187 186 187 188 190 191 190
96 92 93 93 88 83 79 80 85 86 81 80 84 82 70 68 67 55 48 57 64 59 54 49 46 55 74 84 88 103 119 128 133 141 158 175 187 192 193 195 198 197 193 193 194 193 191 190 190 188 186 186 188 187 184 183 183 183 183 183 183 183 185 185 185 185 186 188 190 191 191 191 191 191 193 195 195 194 194 195 194 194 195 197 198 197 194
117 128 139 144 134 118 111 112 110 104 96 88 85 82 72 66 62 53 47 50 51 50 56 59 54 59 77 87 89 103 123 132 134 143 163 179 192 200 203 207 209 206 201 199 197 195 193 193 191 188 186 187 187 186 185 187 188 186 183 183 184 185 187 188 186 185 187 190 193 193 192 194 196 198 200 201 200 199 200 201 201 201 201 203 203 199 196
105 105 108 114 117 119 124 128 128 121 112 99 92 93 93 88 78 65 51 45 42 54 83 83 76 77 79 75 71 71 64 59 121 163 181 195 210 216 214 211 209 204 201 201 200 198 196 194 190 186 185 185 184 183 185 188 189 187 187 187 187 188 190 190 188 188 191 193 194 193 195 199 203 205 205 205 205 204 205 204 204 205 206 206 203 199 197
102 99 94 98 104 110 118 125 127 124 119 116 116 116 108 101 94 84 69 58 60 87 114 112 97 87 78 69 64 58 40 21 155 182 192 204 218 221 216 209 200 191 187 192 198 199 197 193 188 183 181 181 181 181 183 187 188 190 193 196 193 191 193 194 192 193 195 197 197 197 199 203 206 207 208 208 207 206 206 206 207 208 209 208 205 202 200
111 113 110 103 104 107 114 123 125 123 120 123 128 126 114 105 99 92 83 74 74 89 114 117 100 87 81 77 76 79 84 140 205 216 216 223 228 218 211 209 200 187 183 189 195 195 194 191 186 182 181 180 179 179 182 185 187 188 190 194 194 193 193 194 195 198 200 202 202 201 201 203 205 206 206 206 205 205 206 207 208 209 210 211 211 209 207
116 116 116 114 110 109 116 126 128 127 124 121 125 128 124 115 105 93 84 77 73 78 88 93 92 89 86 81 77 73 77 107 175 215 224 242 241 220 212 219 210 199 200 202 195 191 192 190 185 181 179 177 177 178 183 188 190 187 186 189 195 197 196 195 196 199 201 202 202 201 201 202 204 205 204 203 204 206 208 209 211 212 212 214 215 216 214
117 119 122 120 113 113 119 125 125 127 129 129 130 130 126 119 111 103 93 83 76 78 86 90 88 81 75 73 68 55 50 65 104 175 184 191 200 192 186 240 246 234 232 221 201 194 192 189 186 185 183 180 179 180 183 187 189 187 184 188 195 198 197 196 196 196 197 197 199 200 202 203 204 206 205 204 205 208 211 213 215 216 215 216 218 219 218
127 128 127 120 112 113 120 125 130 134 138 140 142 142 136 127 119 112 105 98 96 101 107 111 109 101 95 89 70 45 38 53 94 171 171 167 169 165 155 208 267 259 256 239 213 199 192 187 186 186 185 183 183 183 181 183 187 188 188 191 196 197 197 196 191 187 186 187 191 196 200 202 204 207 208 207 208 211 214 216 218 218 218 218 219 220 222
122 124 123 121 119 119 124 135 145 146 144 145 151 154 148 139 135 135 134 129 128 127 129 139 143 136 129 117 84 56 54 84 137 175 186 182 173 159 137 84 258 239 238 226 205 191 184 182 183 184 184 183 183 181 178 179 184 186 188 190 191 190 190 188 184 181 182 184 186 191 196 199 204 208 209 209 211 214 217 219 219 218 219 221 222 223 226
126 130 126 125 128 127 129 137 143 140 138 146 155 161 158 151 151 160 161 155 150 145 137 133 137 135 126 110 93 97 121 134 134 151 182 199 194 185 173 169 182 186 185 181 176 173 171 171 171 171 172 173 174 175 177 179 181 181 181 181 181 181 182 181 180 181 184 185 187 191 195 202 210 211 208 208 211 215 218 220 218 217 220 223 225 227 229
132 138 133 134 141 139 135 136 137 137 143 150 154 159 164 165 167 172 168 160 157 153 141 129 127 126 118 112 115 120 127 142 151 154 159 186 218 226 214 186 171 168 166 162 159 158 157 157 155 155 157 160 162 165 170 172 172 172 172 172 176 182 184 183 181 180 181 186 194 200 207 217 224 220 214 213 214 216 217 219 219 220 223 227 229 233 238
131 141 143 149 152 145 139 140 140 142 154 162 160 160 166 171 175 176 171 161 157 154 145 137 136 135 131 141 158 160 162 174 182 177 157 137 154 235 215 184 167 164 165 162 156 151 150 148 144 143 147 152 156 159 160 160 163 167 168 167 169 173 178 183 186 188 189 195 199 203 211 223 229 228 225 224 225 226 226 226 227 229 231 232 234 237 241
125 142 146 150 150 146 147 152 151 149 160 168 167 166 173 178 180 180 177 171 166 164 159 154 154 152 150 157 172 188 199 201 202 201 184 154 136 199 188 175 167 164 165 164 158 151 148 145 143 142 145 148 151 151 151 153 159 166 170 172 174 172 171 186 195 197 196 192 189 195 212 227 233 235 234 232 232 234 236 237 240 241 241 240 240 241 242
134 144 135 131 143 153 161 168 165 156 156 163 168 175 184 186 182 181 184 183 179 176 174 170 166 165 164 165 169 179 193 205 214 216 212 221 237 210 184 171 166 165 165 162 156 149 144 142 142 144 147 151 154 153 151 151 154 157 161 169 180 189 197 195 186 184 187 190 194 204 219 230 237 243 243 240 238 239 241 243 245 246 246 246 248 247 247
150 151 130 121 133 150 163 172 170 156 152 161 172 182 188 187 181 178 180 183 184 184 180 172 167 173 179 178 175 178 182 186 197 218 241 267 251 196 177 168 163 163 162 159 155 150 145 142 142 145 150 156 158 156 151 151 155 160 159 158 168 188 207 212 189 175 181 191 199 208 220 230 240 246 247 245 243 243 243 244 247 249 249 249 250 251 251
141 162 150 141 138 141 154 165 165 159 168 184 185 175 181 185 183 177 173 174 180 184 182 176 174 182 190 192 193 186 179 174 179 203 232 254 215 177 171 167 164 164 163 158 153 152 152 151 151 153 156 157 154 150 148 152 160 165 167 165 160 165 183 198 200 198 201 207 214 222 233 243 249 250 248 245 245 246 246 246 247 248 249 249 250 251 253
129 144 145 145 143 138 139 146 150 159 177 189 187 171 170 172 172 172 174 174 173 173 175 178 182 187 193 200 205 192 183 183 190 199 209 216 192 176 171 166 161 162 162 156 151 151 155 158 160 163 165 164 162 160 161 164 163 164 172 184 187 165 165 193 232 240 237 236 238 242 248 253 252 247 245 245 246 247 247 246 246 247 248 249 251 253 255
136 142 140 137 136 136 133 134 148 166 174 171 158 146 149 152 153 161 171 172 167 164 167 172 179 187 196 203 206 195 191 205 227 203 186 189 187 182 177 169 160 159 162 161 161 164 169 174 179 186 187 185 185 186 185 182 179 179 185 194 193 188 219 267 286 282 259 247 246 250 253 252 245 241 243 246 248 249 249 249 249 250 250 251 252 254 256
153 157 154 146 141 146 148 137 140 159 170 166 151 139 143 150 154 159 163 163 160 159 160 166 176 187 193 193 191 187 189 205 219 194 179 179 183 184 183 180 173 169 171 172 175 178 181 184 187 190 188 189 196 202 199 198 198 196 192 194 206 246 280 292 304 300 264 242 241 244 244 238 232 238 246 246 244 244 245 247 249 251 254 256 258 261 263
151 148 155 166 162 146 145 145 146 157 169 171 160 148 147 151 153 156 160 160 160 160 162 167 178 187 187 183 179 178 179 184 181 165 163 164 170 178 183 185 185 185 186 186 186 188 189 190 188 184 183 186 190 190 189 192 194 193 194 211 244 276 291 304 313 306 264 226 216 214 209 197 185 188 198 191 160 144 140 145 170 214 237 250 256 259 260